Location: Central Falls
(41.8900°N, 71.3929°W)
Time: 03:29:36
(UTC+00:00)

Vanguard 2 - Pass Details

Date: 12 December 2023
Orbit: 554 x 2918 km, 32.9° (Epoch: 01 March)

Event Time Altitude Azimuth Distance (km) Brightness Sun altitude
Rises 05:34:35 0° 278° (W) 6,635 - -67.9°
Reaches altitude 10° 05:40:01 10° 270° (W) 5,405 - -67.3°
Maximum altitude 05:52:13 30° 218° (SW) 3,252 - -65.8°
Drops below altitude 10° 06:00:56 10° 162° (SSE) 3,792 - -64.6°
Sets 06:04:00 0° 151° (SSE) 4,450 - -64.2°
